Погода в Карт-Джурте

Россия / Карачаево-Черкесская Республика     43°30′14″N   42°06′47″E
темп.,
°C
ветер,
м/с
пор.,
м/с
влажн.,
%
обл.,
%
осадки,
мм/ч
давл.,
гПа
погр.,
м
12 мая, ср
ср1200:00−2ю68454 0.0 1017151
03:00−1ю57475 0.0 1017119
06:00+1ю46485 0.0 1015150
09:00+10ююз25320 0.0 10121164
12:00+13ююз36281 0.0 10111907
15:00+13ююз38270 0.0 10112498
18:00+10ююз36430 0.0 1013409
21:00+3ю56534 0.0 101681
13 мая, чт
чт1300:00+3ю56533 0.0 101671
03:00+4ю55544 0.0 101662
06:00+6ю45560 0.0 101571
09:00+15ю37300 0.0 10132289
12:00+17ююз37286 0.0 10132818
15:00+18ююз35255 0.0 10132855
18:00+15з11500 0.0 101479
21:00+7ю44515 0.0 101853
14 мая, пт
пт1400:00+7ююз454473 0.0 101856
03:00+7ю444568 0.0 101849
06:00+9ююз44481 0.0 101852
09:00+17с22270 0.0 10151640
12:00+20с342677 0.0 10132767
15:00+18ссв443370 0.0 10141895
18:00+15юв236096 0.3 1015113
21:00+8ю448229 0.9 101964
15 мая, сб
сб1500:00+8ююз567352 0.0 101868
03:00+8ююз4571100 0.0 101862
06:00+9ююз44605 0.0 101856
09:00+17с32332 0.0 10161715
12:00+19с443387 0.0 10142768
15:00+13в117785 2.0 1017100
18:00+11с1287100 4.8 1017114
21:00+7ю32926 6.6 102039
16 мая, вс
вс1600:00+7ю44873 0.0 101752
03:00+6ююз44825 0.0 101651
06:00+8ю346924 0.0 101548
09:00+17ссв223339 0.0 10111096
12:00+20с343065 0.0 10082287
15:00+19ссз334293 0.0 10071812
18:00+15с1276100 1.8 1008115
21:00+9ю4375100 2.2 101143